Back to catalog

DELTA 1 DEB

AliveSSO
NORAD 8980·DEBRIS·🇺🇸 United States

Launched Jan 22, 1975 from Vandenberg Space Force Base

Loading…

Next Passes (next 24 hours)

TLE

FreshSource: Space-Track

Epoch: Sep 14, 2026, 15:07 UTC

1 08980U 75004BN  26257.63047187  .00000673  00000-0  12339-3 0  9996
2 08980  97.8960 143.2906 0039907  86.9628 273.6143 14.68374360660334

Track DELTA 1 DEB in real time with AllMySat

Download on the App Store